Terug naar catalogus

TYVAK-0173

ActiefWetenschapPO
NORAD 48892·PAYLOAD·🇦🇺 Australia

Gelanceerd Jun 30, 2021 vanaf Cape Canaveral Space Force Station

Loading…

Volgende Passages (komende 24 uur)

TLE

VersSource: Space-Track

Epoch: Sep 14, 2026, 02:53 UTC

1 48892U 21059P   26257.12015216  .00001176  00000-0  15175-3 0  9995
2 48892  95.9995 311.3438 0011005  88.5089 271.7390 14.82115030281417

Volg TYVAK-0173 in realtime met AllMySat

Download on the App Store